BAW2159 TLPL-TGPY

Flight info

Callsign BAW2159
Flight time 0h 30m
Altitude 14000
Route DCT BNE A324 GND DCT
Aircraft B772/H-SDE2E3FGHIJ5LORVWXY/LB1D1

Departure

Time 2026-04-20 19:07
Airport Hewanorra International Airport (TLPL)

Arrival

Time 2026-04-20 19:38
Airport Maurice Bishop International Airport (TGPY)
Time Latitude Longitude Altitude Speed Heading
2026-04-20 18:53 13.73562 -60.95029 31 ft 0 kts 359°
2026-04-20 19:01 13.73560 -60.95029 31 ft 1 kts 359°
2026-04-20 19:01 13.73545 -60.95029 31 ft 3 kts 359°
2026-04-20 19:01 13.73527 -60.95025 31 ft 3 kts 337°
2026-04-20 19:01 13.73509 -60.95014 31 ft 3 kts 314°
2026-04-20 19:02 13.73498 -60.94997 31 ft 3 kts 292°
2026-04-20 19:02 13.73494 -60.94985 31 ft 0 kts 281°
2026-04-20 19:02 13.73494 -60.94986 31 ft 3 kts 281°
2026-04-20 19:02 13.73494 -60.95075 31 ft 10 kts 247°
2026-04-20 19:03 13.73423 -60.95107 31 ft 24 kts 181°
2026-04-20 19:03 13.73328 -60.95164 31 ft 22 kts 263°
2026-04-20 19:03 13.73326 -60.95293 31 ft 15 kts 270°
2026-04-20 19:03 13.73328 -60.95415 31 ft 30 kts 271°
2026-04-20 19:04 13.73330 -60.95612 31 ft 25 kts 270°
2026-04-20 19:04 13.73331 -60.95786 31 ft 28 kts 270°
2026-04-20 19:04 13.73333 -60.95969 31 ft 23 kts 270°
2026-04-20 19:04 13.73334 -60.96113 31 ft 17 kts 270°
2026-04-20 19:05 13.73336 -60.96286 31 ft 7 kts 271°
2026-04-20 19:05 13.73339 -60.96409 31 ft 18 kts 279°
2026-04-20 19:05 13.73352 -60.96469 31 ft 1 kts 251°
2026-04-20 19:06 13.73336 -60.96467 31 ft 6 kts 146°
2026-04-20 19:06 13.73335 -60.96445 31 ft 0 kts 92°
2026-04-20 19:06 13.73331 -60.96317 31 ft 60 kts 90°
2026-04-20 19:07 13.73330 -60.95506 34 ft 165 kts 89°
2026-04-20 19:07 13.73347 -60.94150 920 ft 208 kts 89°
2026-04-20 19:07 13.73390 -60.92553 1576 ft 230 kts 88°
2026-04-20 19:07 13.73455 -60.90971 1995 ft 218 kts 88°
2026-04-20 19:08 13.73438 -60.89353 2652 ft 233 kts 92°
2026-04-20 19:08 13.71800 -60.86491 3869 ft 254 kts 148°
2026-04-20 19:08 13.70055 -60.86082 4512 ft 265 kts 176°
2026-04-20 19:09 13.68190 -60.86321 5167 ft 272 kts 188°
2026-04-20 19:09 13.66349 -60.86795 5794 ft 273 kts 194°
2026-04-20 19:09 13.64657 -60.87656 6407 ft 278 kts 212°
2026-04-20 19:09 13.63155 -60.88925 7044 ft 282 kts 220°
2026-04-20 19:10 13.61736 -60.90330 7674 ft 284 kts 223°
2026-04-20 19:10 13.60348 -60.91780 8301 ft 285 kts 224°
2026-04-20 19:10 13.58963 -60.93249 8928 ft 287 kts 225°
2026-04-20 19:10 13.57566 -60.94734 9557 ft 289 kts 225°
2026-04-20 19:11 13.56158 -60.96221 10186 ft 291 kts 225°
2026-04-20 19:11 13.54735 -60.97708 10814 ft 292 kts 225°
2026-04-20 19:11 13.53301 -60.99191 11439 ft 293 kts 225°
2026-04-20 19:11 13.51849 -61.00679 12065 ft 295 kts 225°
2026-04-20 19:12 13.50380 -61.02166 12693 ft 297 kts 225°
2026-04-20 19:12 13.48888 -61.03655 13323 ft 301 kts 225°
2026-04-20 19:12 13.47377 -61.05150 13909 ft 314 kts 225°
2026-04-20 19:12 13.45726 -61.06780 13999 ft 341 kts 225°
2026-04-20 19:13 13.44009 -61.08472 13998 ft 339 kts 225°
2026-04-20 19:13 13.42301 -61.10155 13997 ft 340 kts 225°
2026-04-20 19:13 13.40591 -61.11840 13996 ft 340 kts 225°
2026-04-20 19:13 13.38789 -61.13417 13988 ft 342 kts 216°
2026-04-20 19:14 13.36680 -61.14553 13999 ft 344 kts 205°
2026-04-20 19:14 13.34424 -61.15401 13998 ft 345 kts 199°
2026-04-20 19:14 13.32122 -61.16117 13996 ft 345 kts 197°
2026-04-20 19:14 13.29816 -61.16798 13994 ft 345 kts 197°
2026-04-20 19:15 13.27540 -61.17490 13994 ft 345 kts 198°
2026-04-20 19:15 13.25251 -61.18230 13993 ft 345 kts 199°
2026-04-20 19:15 13.22979 -61.19020 13993 ft 344 kts 200°
2026-04-20 19:15 13.20727 -61.19855 13992 ft 344 kts 201°
2026-04-20 19:16 13.18484 -61.20734 13992 ft 344 kts 202°
2026-04-20 19:16 13.16269 -61.21668 13991 ft 344 kts 204°
2026-04-20 19:16 13.14079 -61.22659 13991 ft 344 kts 205°
2026-04-20 19:16 13.11905 -61.23683 13990 ft 343 kts 206°
2026-04-20 19:17 13.09740 -61.24728 13989 ft 343 kts 206°
2026-04-20 19:17 13.07582 -61.25782 13989 ft 343 kts 207°
2026-04-20 19:17 13.06155 -61.26484 13988 ft 343 kts 207°
2026-04-20 19:17 13.03997 -61.27548 13986 ft 343 kts 207°
2026-04-20 19:18 13.01148 -61.28956 13985 ft 343 kts 207°
2026-04-20 19:18 12.99697 -61.29673 13984 ft 343 kts 207°
2026-04-20 19:18 12.97541 -61.30738 13983 ft 343 kts 207°
2026-04-20 19:18 12.95386 -61.31802 13983 ft 343 kts 207°
2026-04-20 19:19 12.93231 -61.32865 13982 ft 343 kts 207°
2026-04-20 19:19 12.91078 -61.33927 13981 ft 343 kts 207°
2026-04-20 19:19 12.88954 -61.34974 13980 ft 343 kts 207°
2026-04-20 19:19 12.86804 -61.36034 13980 ft 343 kts 207°
2026-04-20 19:20 12.84650 -61.37095 13979 ft 343 kts 207°
2026-04-20 19:20 12.82492 -61.38158 13978 ft 343 kts 207°
2026-04-20 19:20 12.80334 -61.39219 13977 ft 343 kts 207°
2026-04-20 19:20 12.78183 -61.40278 13977 ft 343 kts 207°
2026-04-20 19:21 12.76029 -61.41338 13977 ft 343 kts 207°
2026-04-20 19:21 12.73875 -61.42397 13977 ft 343 kts 207°
2026-04-20 19:21 12.71721 -61.43457 13976 ft 343 kts 207°
2026-04-20 19:21 12.69566 -61.44516 13976 ft 343 kts 207°
2026-04-20 19:22 12.67414 -61.45574 13974 ft 343 kts 207°
2026-04-20 19:22 12.65251 -61.46638 13974 ft 343 kts 207°
2026-04-20 19:22 12.63102 -61.47694 13974 ft 344 kts 207°
2026-04-20 19:22 12.60927 -61.48764 13632 ft 347 kts 206°
2026-04-20 19:23 12.58783 -61.49818 13181 ft 339 kts 206°
2026-04-20 19:23 12.56670 -61.50855 12727 ft 332 kts 206°
2026-04-20 19:23 12.54600 -61.51871 12273 ft 326 kts 206°
2026-04-20 19:23 12.52603 -61.52853 11827 ft 320 kts 206°
2026-04-20 19:24 12.50610 -61.53833 11376 ft 316 kts 206°
2026-04-20 19:24 12.48642 -61.54801 10923 ft 311 kts 206°
2026-04-20 19:24 12.46698 -61.55755 10471 ft 308 kts 206°
2026-04-20 19:24 12.44776 -61.56698 10018 ft 305 kts 205°
2026-04-20 19:25 12.42867 -61.57636 9566 ft 302 kts 205°
2026-04-20 19:25 12.40975 -61.58566 9115 ft 300 kts 205°
2026-04-20 19:25 12.39095 -61.59490 8664 ft 298 kts 204°
2026-04-20 19:25 12.37232 -61.60404 8213 ft 296 kts 204°
2026-04-20 19:26 12.35379 -61.61312 7762 ft 294 kts 204°
2026-04-20 19:26 12.33536 -61.62214 7311 ft 292 kts 204°
2026-04-20 19:26 12.31743 -61.63128 6862 ft 292 kts 207°
2026-04-20 19:26 12.30223 -61.64490 6402 ft 293 kts 230°
2026-04-20 19:27 12.29121 -61.66234 5966 ft 292 kts 239°
2026-04-20 19:27 12.28200 -61.68080 5518 ft 291 kts 243°
2026-04-20 19:27 12.27345 -61.69957 5067 ft 290 kts 244°
2026-04-20 19:27 12.26520 -61.71834 4618 ft 289 kts 245°
2026-04-20 19:28 12.25703 -61.73715 4164 ft 288 kts 245°
2026-04-20 19:28 12.24892 -61.75595 3715 ft 288 kts 245°
2026-04-20 19:28 12.24088 -61.77464 3266 ft 287 kts 245°
2026-04-20 19:28 12.23228 -61.79303 2813 ft 286 kts 240°
2026-04-20 19:29 12.22225 -61.81057 2366 ft 285 kts 237°
2026-04-20 19:29 12.21177 -61.82754 2106 ft 275 kts 236°
2026-04-20 19:29 12.20164 -61.84352 2015 ft 259 kts 236°
2026-04-20 19:29 12.19213 -61.85847 1993 ft 244 kts 235°
2026-04-20 19:30 12.18315 -61.87258 1995 ft 237 kts 235°
2026-04-20 19:30 12.17422 -61.88662 1994 ft 231 kts 235°
2026-04-20 19:30 12.16582 -61.89985 2033 ft 213 kts 235°
2026-04-20 19:30 12.15790 -61.91239 2009 ft 208 kts 235°
2026-04-20 19:31 12.15006 -61.92462 1992 ft 203 kts 233°
2026-04-20 19:31 12.13960 -61.93376 1971 ft 198 kts 205°
2026-04-20 19:31 12.12658 -61.93855 2036 ft 201 kts 195°
2026-04-20 19:31 12.11348 -61.94306 1997 ft 195 kts 195°
2026-04-20 19:32 12.10068 -61.94751 1997 ft 194 kts 195°
2026-04-20 19:32 12.08812 -61.95189 1998 ft 193 kts 195°
2026-04-20 19:32 12.07542 -61.95632 1999 ft 192 kts 195°
2026-04-20 19:32 12.06276 -61.96073 1999 ft 192 kts 195°
2026-04-20 19:33 12.05011 -61.96514 2000 ft 192 kts 195°
2026-04-20 19:33 12.03709 -61.96725 1975 ft 188 kts 175°
2026-04-20 19:33 12.02509 -61.96259 2004 ft 187 kts 142°
2026-04-20 19:33 12.01634 -61.95300 2044 ft 182 kts 125°
2026-04-20 19:34 12.01062 -61.94157 2009 ft 181 kts 111°
2026-04-20 19:34 12.00764 -61.92917 2003 ft 179 kts 99°
2026-04-20 19:34 12.00680 -61.91650 2002 ft 178 kts 91°
2026-04-20 19:34 12.00702 -61.90394 2011 ft 171 kts 89°
2026-04-20 19:35 12.00720 -61.89233 2010 ft 162 kts 90°
2026-04-20 19:35 12.00687 -61.88098 1781 ft 154 kts 93°
2026-04-20 19:35 12.00622 -61.87017 1571 ft 153 kts 94°
2026-04-20 19:35 12.00535 -61.85968 1297 ft 149 kts 95°
2026-04-20 19:36 12.00436 -61.84932 1079 ft 143 kts 94°
2026-04-20 19:36 12.00388 -61.83912 961 ft 144 kts 91°
2026-04-20 19:36 12.00381 -61.82888 773 ft 146 kts 90°
2026-04-20 19:36 12.00421 -61.81870 512 ft 139 kts 90°
2026-04-20 19:37 12.00384 -61.80890 317 ft 146 kts 91°
2026-04-20 19:37 12.00379 -61.79877 119 ft 135 kts 91°
2026-04-20 19:37 12.00375 -61.79051 58 ft 81 kts 91°
2026-04-20 19:37 12.00370 -61.78584 58 ft 56 kts 90°
2026-04-20 19:38 12.00367 -61.78276 58 ft 34 kts 92°
2026-04-20 19:38 12.00362 -61.78065 58 ft 26 kts 91°
2026-04-20 19:38 12.00350 -61.77908 58 ft 17 kts 108°
2026-04-20 19:38 12.00350 -61.77873 58 ft 4 kts 57°
2026-04-20 19:39 12.00368 -61.77901 58 ft 3 kts 256°
2026-04-20 19:39 12.00359 -61.77996 58 ft 14 kts 272°
2026-04-20 19:39 12.00362 -61.78092 58 ft 12 kts 271°
2026-04-20 19:39 12.00367 -61.78252 58 ft 29 kts 271°
2026-04-20 19:40 12.00370 -61.78435 58 ft 20 kts 270°
2026-04-20 19:40 12.00386 -61.78557 58 ft 17 kts 308°
2026-04-20 19:40 12.00479 -61.78589 58 ft 10 kts
2026-04-20 19:40 12.00547 -61.78535 58 ft 6 kts 91°
2026-04-20 19:41 12.00583 -61.78479 58 ft 11 kts
2026-04-20 19:41 12.00611 -61.78479 58 ft 0 kts 359°